Weather History for Santa Ynez, CA

Change the Weather History Date:

Friday, October 5, 2012

  Actual Average (KSBA) Record (KSBA)
Temperature  
Mean Temperature 68 °F 63 °F  
Max Temperature 86 °F 73 °F 98 °F (1971)
Min Temperature 50 °F 53 °F 43 °F (2005)
Degree Days  
Heating Degree Days 0 3  
Month to date heating degree days 14  
Since 1 July heating degree days 109  
Cooling Degree Days 3 1  
Month to date cooling degree days 5  
Year to date cooling degree days 176  
Growing Degree Days 18 (Base 50)    
Moisture  
Dew Point 51 °F    
Average Humidity 68    
Maximum Humidity 94    
Minimum Humidity 26    
Precipitation  
Precipitation 0.00 in 0.02 in 0.80 in (2011)
Month to date precipitation 0.08  
Year to date precipitation 12.54  
Since 1 July precipitation 0.49  
Sea Level Pressure  
Sea Level Pressure 30.06 in    
Wind  
Wind Speed 4 mph (West)    
Max Wind Speed 21 mph    
Max Gust Speed 30 mph    
Visibility 10 miles    
Events      
T = Trace of Precipitation, MM = Missing Value Source: NWS Daily Summary

Daily Weather History Graph

Daily Weather History Graph

Search for Another Location

Airport:

Trip Planner

Search our weather history database for the weather conditions in past years. The results will help you decide how hot, cold, wet, or windy it might be!

Date:

Astronomy

Oct. 05, 2012 Rise Set
Actual Time 6:58 AM PDT 6:38 PM PDT
Civil Twilight 6:33 AM PDT 7:03 PM PDT
Nautical Twilight 6:04 AM PDT 7:32 PM PDT
Astronomical Twilight 5:34 AM PDT 8:01 PM PDT
Moon 10:17 PM PDT (10/5) 11:58 AM PDT (10/5)
Length of Visible Light 12h 29m
Length of Day
11h 39m
Waning Gibbous, 73% of the Moon is Illuminated
Oct 5
Waning Gibbous
Oct 8
Last Quarter
Oct 15
New
Oct 21
First Quarter
Oct 29
Full

Hourly Weather History & Observations

Time (PDT) Temp. Heat Index Dew Point Humidity Pressure Visibility Wind Dir Wind Speed Gust Speed Precip Events Conditions
12:15 AM 55.4 °F - 51.8 °F 88% 30.12 in 7.0 mi Calm Calm - N/A   Overcast
12:35 AM 55.4 °F - 51.8 °F 88% 30.12 in 10.0 mi Calm Calm - N/A   Overcast
12:55 AM 55.4 °F - 51.8 °F 88% 30.12 in 10.0 mi Calm Calm - N/A   Overcast
1:15 AM 55.4 °F - 51.8 °F 88% 30.12 in 10.0 mi Calm Calm - N/A   Overcast
1:35 AM 55.4 °F - 51.8 °F 88% 30.12 in 10.0 mi Calm Calm - N/A   Overcast
1:55 AM 55.4 °F - 51.8 °F 88% 30.12 in 7.0 mi Calm Calm - N/A   Overcast
2:15 AM 55.4 °F - 51.8 °F 88% 30.12 in 7.0 mi Calm Calm - N/A   Overcast
2:35 AM 55.4 °F - 51.8 °F 88% 30.12 in 10.0 mi North 4.6 mph - N/A   Overcast
2:55 AM 55.4 °F - 51.8 °F 88% 30.11 in 10.0 mi Calm Calm - N/A   Overcast
3:15 AM 55.4 °F - 51.8 °F 88% 30.11 in 10.0 mi Calm Calm - N/A   Overcast
3:35 AM 55.4 °F - 51.8 °F 88% 30.10 in 7.0 mi NNW 3.5 mph - N/A   Overcast
3:55 AM 55.4 °F - 51.8 °F 88% 30.10 in 10.0 mi Calm Calm - N/A   Overcast
4:15 AM 55.4 °F - 51.8 °F 88% 30.10 in 10.0 mi Calm Calm - N/A   Overcast
4:35 AM 55.4 °F - 51.8 °F 88% 30.10 in 10.0 mi Calm Calm - N/A   Overcast
4:55 AM 55.4 °F - 51.8 °F 88% 30.10 in 10.0 mi Calm Calm - N/A   Overcast
5:15 AM 53.6 °F - 50.0 °F 88% 30.10 in 10.0 mi Calm Calm - N/A   Mostly Cloudy
5:35 AM 53.6 °F - 50.0 °F 88% 30.10 in 10.0 mi NW 3.5 mph - N/A   Scattered Clouds
5:55 AM 53.6 °F - 50.0 °F 88% 30.10 in 10.0 mi Calm Calm - N/A   Mostly Cloudy
6:15 AM 51.8 °F - 50.0 °F 94% 30.10 in 10.0 mi Calm Calm - N/A   Scattered Clouds
6:35 AM 51.8 °F - 50.0 °F 94% 30.10 in 10.0 mi NE 3.5 mph - N/A   Clear
6:55 AM 53.6 °F - 50.0 °F 88% 30.10 in 7.0 mi Calm Calm - N/A   Scattered Clouds
7:15 AM 50.0 °F - 46.4 °F 87% 30.10 in 5.0 mi Calm Calm - N/A   Scattered Clouds
7:35 AM 51.8 °F - 50.0 °F 94% 30.10 in 7.0 mi Calm Calm - N/A   Clear
7:55 AM 53.6 °F - 50.0 °F 88% 30.10 in 10.0 mi Calm Calm - N/A   Clear
8:15 AM 53.6 °F - 50.0 °F 88% 30.10 in 7.0 mi Calm Calm - N/A   Clear
8:35 AM 55.4 °F - 50.0 °F 82% 30.10 in 10.0 mi Calm Calm - N/A   Clear
8:55 AM 57.2 °F - 50.0 °F 77% 30.11 in 10.0 mi Calm Calm - N/A   Clear
9:15 AM 59.0 °F - 51.8 °F 77% 30.10 in 10.0 mi Calm Calm - N/A   Clear
9:35 AM 60.8 °F - 51.8 °F 72% 30.11 in 10.0 mi Calm Calm - N/A   Clear
9:55 AM 60.8 °F - 50.0 °F 68% 30.10 in 10.0 mi Calm Calm - N/A   Clear
10:15 AM 62.6 °F - 51.8 °F 68% 30.10 in 10.0 mi West 6.9 mph - N/A   Clear
10:35 AM 62.6 °F - 51.8 °F 68% 30.10 in 10.0 mi West 8.1 mph - N/A   Clear
10:55 AM 64.4 °F - 51.8 °F 64% 30.09 in 10.0 mi WSW 6.9 mph - N/A   Clear
11:35 AM 71.6 °F - 53.6 °F 53% 30.07 in 10.0 mi West 4.6 mph - N/A   Clear
11:55 AM 71.6 °F - 53.6 °F 53% 30.07 in 10.0 mi West 10.4 mph - N/A   Clear
12:15 PM 77.0 °F - 53.6 °F 44% 30.07 in 10.0 mi West 11.5 mph - N/A   Clear
12:35 PM 78.8 °F - 51.8 °F 39% 30.05 in 10.0 mi West 6.9 mph - N/A   Clear
12:55 PM 80.6 °F 80.3 °F 53.6 °F 39% 30.05 in 10.0 mi West 10.4 mph - N/A   Clear
1:15 PM 82.4 °F - 51.8 °F 35% 30.03 in 10.0 mi West 13.8 mph 18.4 mph N/A   Clear
1:35 PM 80.6 °F - 51.8 °F 37% 30.02 in 10.0 mi WNW 19.6 mph 23.0 mph N/A   Clear
1:55 PM 80.6 °F - 51.8 °F 37% 30.01 in 10.0 mi WNW 16.1 mph - N/A   Clear
2:15 PM 84.2 °F - 51.8 °F 33% 30.01 in 10.0 mi WNW 12.7 mph 23.0 mph N/A   Clear
2:35 PM 86.0 °F - 50.0 °F 29% 30.00 in 10.0 mi WNW 16.1 mph - N/A   Clear
2:55 PM 82.4 °F - 44.6 °F 26% 30.00 in 10.0 mi NW 19.6 mph 29.9 mph N/A   Clear
3:15 PM 80.6 °F - 46.4 °F 30% 29.99 in 10.0 mi NW 19.6 mph 26.5 mph N/A   Clear
3:35 PM 82.4 °F - 46.4 °F 28% 29.99 in 10.0 mi WNW 18.4 mph 26.5 mph N/A   Clear
3:55 PM 82.4 °F - 46.4 °F 28% 29.99 in 10.0 mi NW 20.7 mph 27.6 mph N/A   Clear
4:15 PM 80.6 °F - 46.4 °F 30% 29.98 in 10.0 mi NW 18.4 mph 26.5 mph N/A   Clear
4:35 PM 78.8 °F - 46.4 °F 32% 29.98 in 10.0 mi NW 18.4 mph 25.3 mph N/A   Clear
4:55 PM 75.2 °F - 51.8 °F 44% 29.98 in 10.0 mi WNW 13.8 mph 19.6 mph N/A   Clear
5:15 PM 75.2 °F - 51.8 °F 44% 29.98 in 10.0 mi WNW 12.7 mph 18.4 mph N/A   Clear
5:35 PM 73.4 °F - 51.8 °F 47% 29.98 in 10.0 mi WNW 12.7 mph - N/A   Clear
5:55 PM 71.6 °F - 51.8 °F 50% 29.99 in 10.0 mi WNW 12.7 mph - N/A   Clear
6:15 PM 71.6 °F - 51.8 °F 50% 29.99 in 10.0 mi West 8.1 mph - N/A   Clear
6:35 PM 68.0 °F - 51.8 °F 56% 30.00 in 10.0 mi SW 9.2 mph - N/A   Clear
6:55 PM 66.2 °F - 51.8 °F 60% 30.00 in 10.0 mi SW 6.9 mph - N/A   Clear
7:15 PM 64.4 °F - 51.8 °F 64% 30.00 in 10.0 mi WSW 4.6 mph - N/A   Clear
7:35 PM 64.4 °F - 51.8 °F 64% 30.01 in 10.0 mi SW 5.8 mph - N/A   Clear
7:55 PM 62.6 °F - 51.8 °F 68% 30.01 in 10.0 mi SW 4.6 mph - N/A   Clear
8:15 PM 62.6 °F - 51.8 °F 68% 30.02 in 10.0 mi WSW 5.8 mph - N/A   Clear
8:35 PM 60.8 °F - 51.8 °F 72% 30.02 in 10.0 mi WSW 5.8 mph - N/A   Clear
8:55 PM 60.8 °F - 51.8 °F 72% 30.02 in 10.0 mi West 8.1 mph - N/A   Clear
9:15 PM 60.8 °F - 51.8 °F 72% 30.02 in 10.0 mi West 6.9 mph - N/A   Clear
9:35 PM 59.0 °F - 51.8 °F 77% 30.02 in 10.0 mi West 4.6 mph - N/A   Clear
9:55 PM 59.0 °F - 51.8 °F 77% 30.02 in 10.0 mi West 5.8 mph - N/A   Clear
10:15 PM 59.0 °F - 51.8 °F 77% 30.02 in 10.0 mi West 8.1 mph - N/A   Clear
10:35 PM 59.0 °F - 51.8 °F 77% 30.02 in 10.0 mi West 5.8 mph - N/A   Clear
10:55 PM 59.0 °F - 51.8 °F 77% 30.02 in 10.0 mi West 4.6 mph - N/A   Clear
11:15 PM 59.0 °F - 51.8 °F 77% 30.02 in 10.0 mi Calm Calm - N/A   Clear
11:35 PM 55.4 °F - 51.8 °F 88% 30.02 in 10.0 mi Calm Calm - N/A   Clear
11:55 PM 55.4 °F - 51.8 °F 88% 30.03 in 10.0 mi Calm Calm - N/A   Clear